VTK225 UNAA-UIII

Flight info

Callsign VTK225
Flight time 1h 25m
Altitude 33000
Route SELTI1C SELTI B951 KEDRA A91 CS G490 NH NH5B
Aircraft A319/M-SDE3FGHIRWY/LB1

Departure

Time 2026-05-04 23:51
Airport Abakan International Airport (UNAA)

Arrival

Time 2026-05-05 01:17
Airport Irkutsk International Airport (UIII)
Time Latitude Longitude Altitude Speed Heading
2026-05-04 23:43 53.74995 91.39907 819 ft 0 kts 162°
2026-05-04 23:47 53.74982 91.39913 840 ft 5 kts 164°
2026-05-04 23:47 53.74943 91.39881 839 ft 8 kts 239°
2026-05-04 23:47 53.74922 91.39777 839 ft 10 kts 251°
2026-05-04 23:48 53.74924 91.39649 841 ft 12 kts 293°
2026-05-04 23:48 53.74957 91.39531 841 ft 5 kts 295°
2026-05-04 23:48 53.74959 91.39523 841 ft 0 kts 295°
2026-05-04 23:49 53.74972 91.39475 841 ft 8 kts 294°
2026-05-04 23:49 53.75000 91.39373 840 ft 11 kts 294°
2026-05-04 23:50 53.75010 91.39299 840 ft 5 kts 242°
2026-05-04 23:50 53.74994 91.39284 841 ft 1 kts 203°
2026-05-04 23:50 53.74962 91.39261 841 ft 23 kts 204°
2026-05-04 23:50 53.74562 91.38951 839 ft 99 kts 205°
2026-05-04 23:51 53.73746 91.38317 845 ft 156 kts 204°
2026-05-04 23:51 53.72754 91.37551 1462 ft 156 kts 205°
2026-05-04 23:51 53.71766 91.36781 2200 ft 158 kts 205°
2026-05-04 23:51 53.70719 91.35968 2650 ft 178 kts 205°
2026-05-04 23:52 53.69517 91.35036 3062 ft 202 kts 205°
2026-05-04 23:52 53.68204 91.33902 3617 ft 223 kts 217°
2026-05-04 23:52 53.67238 91.31719 4127 ft 247 kts 252°
2026-05-04 23:52 53.67251 91.28792 4988 ft 258 kts 289°
2026-05-04 23:53 53.68330 91.26378 5982 ft 264 kts 324°
2026-05-04 23:53 53.70083 91.25433 6986 ft 272 kts 357°
2026-05-04 23:53 53.71973 91.25759 8021 ft 274 kts
2026-05-04 23:53 53.73829 91.26541 9092 ft 275 kts 13°
2026-05-04 23:54 53.75643 91.27449 10145 ft 276 kts 13°
2026-05-04 23:54 53.77540 91.28398 10822 ft 290 kts 12°
2026-05-04 23:54 53.79558 91.29350 11144 ft 313 kts 12°
2026-05-04 23:54 53.81716 91.30306 11431 ft 334 kts 11°
2026-05-04 23:55 53.84002 91.31267 12060 ft 342 kts 10°
2026-05-04 23:55 53.86328 91.32218 12856 ft 344 kts 10°
2026-05-04 23:55 53.91026 91.34116 14484 ft 348 kts 10°
2026-05-04 23:56 53.93394 91.35076 15215 ft 350 kts
2026-05-04 23:56 53.95766 91.36038 15934 ft 352 kts
2026-05-04 23:56 53.98133 91.36997 16635 ft 355 kts
2026-05-04 23:56 54.00548 91.37973 17345 ft 357 kts
2026-05-04 23:57 54.02973 91.38954 18059 ft 359 kts
2026-05-04 23:57 54.05419 91.39946 18729 ft 362 kts
2026-05-04 23:57 54.07887 91.40952 19328 ft 364 kts
2026-05-04 23:57 54.10358 91.41964 19926 ft 366 kts
2026-05-04 23:58 54.12844 91.42985 20502 ft 368 kts
2026-05-04 23:58 54.15311 91.43995 21051 ft 371 kts
2026-05-04 23:58 54.17838 91.45027 21605 ft 373 kts
2026-05-04 23:58 54.20387 91.45814 22134 ft 372 kts
2026-05-04 23:59 54.22973 91.46415 22664 ft 374 kts
2026-05-04 23:59 54.25574 91.47013 23206 ft 376 kts
2026-05-04 23:59 54.28148 91.47601 23711 ft 378 kts
2026-05-04 23:59 54.30764 91.48202 24136 ft 381 kts
2026-05-05 00:00 54.33345 91.49387 24531 ft 390 kts 17°
2026-05-05 00:00 54.34183 91.50061 24667 ft 395 kts 22°
2026-05-05 00:00 54.37724 91.55300 25335 ft 420 kts 46°
2026-05-05 00:00 54.39119 91.59838 25725 ft 439 kts 63°
2026-05-05 00:01 54.39781 91.64991 26155 ft 452 kts 73°
2026-05-05 00:01 54.40264 91.70362 26542 ft 455 kts 73°
2026-05-05 00:01 54.40729 91.75731 26900 ft 457 kts 73°
2026-05-05 00:01 54.41194 91.81163 27234 ft 459 kts 73°
2026-05-05 00:02 54.41661 91.86597 27560 ft 461 kts 73°
2026-05-05 00:02 54.42135 91.92067 27882 ft 463 kts 73°
2026-05-05 00:02 54.42610 91.97550 28207 ft 465 kts 73°
2026-05-05 00:02 54.43080 92.03000 28514 ft 468 kts 73°
2026-05-05 00:03 54.43556 92.08550 28816 ft 470 kts 73°
2026-05-05 00:03 54.44042 92.14122 29191 ft 471 kts 73°
2026-05-05 00:03 54.44540 92.19688 29597 ft 471 kts 72°
2026-05-05 00:03 54.45040 92.25235 30024 ft 469 kts 72°
2026-05-05 00:04 54.45543 92.30794 30414 ft 468 kts 72°
2026-05-05 00:04 54.46037 92.36309 30740 ft 468 kts 72°
2026-05-05 00:04 54.46526 92.41847 31086 ft 467 kts 72°
2026-05-05 00:04 54.47008 92.47369 31452 ft 467 kts 72°
2026-05-05 00:05 54.47478 92.52825 31831 ft 466 kts 72°
2026-05-05 00:05 54.47950 92.58338 32213 ft 466 kts 72°
2026-05-05 00:05 54.48419 92.63847 32588 ft 465 kts 72°
2026-05-05 00:05 54.48887 92.69351 33053 ft 465 kts 72°
2026-05-05 00:06 54.49355 92.74890 33227 ft 466 kts 72°
2026-05-05 00:06 54.50283 92.85948 33256 ft 466 kts 73°
2026-05-05 00:07 54.51197 92.96929 33253 ft 465 kts 73°
2026-05-05 00:07 54.52110 93.07974 33255 ft 466 kts 73°
2026-05-05 00:08 54.53003 93.19035 33258 ft 466 kts 73°
2026-05-05 00:08 54.53886 93.30099 33280 ft 466 kts 73°
2026-05-05 00:09 54.54757 93.41118 33261 ft 466 kts 73°
2026-05-05 00:09 54.55624 93.52222 33260 ft 467 kts 74°
2026-05-05 00:10 54.56464 93.63277 33254 ft 467 kts 74°
2026-05-05 00:10 54.57286 93.74398 33259 ft 467 kts 74°
2026-05-05 00:11 54.58090 93.85539 33283 ft 468 kts 75°
2026-05-05 00:11 54.58886 93.96695 33271 ft 468 kts 75°
2026-05-05 00:12 54.59673 94.07801 33262 ft 469 kts 75°
2026-05-05 00:12 54.60459 94.18984 33267 ft 469 kts 75°
2026-05-05 00:13 54.61235 94.30177 33267 ft 469 kts 75°
2026-05-05 00:13 54.61996 94.41388 33294 ft 470 kts 76°
2026-05-05 00:14 54.62740 94.52550 33281 ft 470 kts 76°
2026-05-05 00:14 54.63480 94.63794 33275 ft 470 kts 76°
2026-05-05 00:15 54.64212 94.75025 33265 ft 470 kts 76°
2026-05-05 00:15 54.64936 94.86264 33269 ft 471 kts 76°
2026-05-05 00:16 54.65647 94.97456 33290 ft 471 kts 77°
2026-05-05 00:16 54.66347 95.08731 33279 ft 471 kts 77°
2026-05-05 00:17 54.67031 95.19990 33270 ft 471 kts 77°
2026-05-05 00:17 54.67714 95.31213 33283 ft 471 kts 77°
2026-05-05 00:18 54.68383 95.42484 33318 ft 472 kts 78°
2026-05-05 00:18 54.69044 95.53785 33293 ft 472 kts 78°
2026-05-05 00:19 54.69694 95.65092 33284 ft 472 kts 78°
2026-05-05 00:19 54.70332 95.76343 33273 ft 472 kts 78°
2026-05-05 00:20 54.70960 95.87663 33266 ft 472 kts 78°
2026-05-05 00:20 54.71581 95.98980 33297 ft 472 kts 78°
2026-05-05 00:21 54.72185 96.10233 33284 ft 472 kts 79°
2026-05-05 00:21 54.72777 96.21567 33275 ft 472 kts 79°
2026-05-05 00:22 54.73366 96.32900 33269 ft 472 kts 79°
2026-05-05 00:22 54.73947 96.44237 33265 ft 472 kts 79°
2026-05-05 00:23 54.74420 96.53657 33299 ft 473 kts 79°
2026-05-05 00:23 54.75073 96.66875 33275 ft 473 kts 79°
2026-05-05 00:24 54.75620 96.76344 33265 ft 472 kts 78°
2026-05-05 00:24 54.76379 96.87580 33257 ft 471 kts 78°
2026-05-05 00:25 54.77134 96.98867 33255 ft 471 kts 78°
2026-05-05 00:25 54.77847 97.10126 33278 ft 471 kts 79°
2026-05-05 00:26 54.78534 97.21438 33271 ft 472 kts 79°
2026-05-05 00:26 54.79209 97.32783 33277 ft 472 kts 79°
2026-05-05 00:27 54.79874 97.44039 33278 ft 471 kts 79°
2026-05-05 00:27 54.80544 97.55356 33274 ft 471 kts 79°
2026-05-05 00:28 54.81197 97.66691 33291 ft 471 kts 80°
2026-05-05 00:28 54.81835 97.77943 33280 ft 471 kts 80°
2026-05-05 00:29 54.82473 97.89268 33272 ft 471 kts 80°
2026-05-05 00:29 54.83147 98.00524 33262 ft 470 kts 79°
2026-05-05 00:30 54.83830 98.11821 33250 ft 470 kts 80°
2026-05-05 00:30 54.84503 98.23124 33264 ft 471 kts 80°
2026-05-05 00:31 54.85155 98.34444 33252 ft 471 kts 81°
2026-05-05 00:31 54.85789 98.45778 33247 ft 471 kts 81°
2026-05-05 00:32 54.86408 98.57047 33236 ft 472 kts 81°
2026-05-05 00:32 54.87026 98.68413 33239 ft 472 kts 81°
2026-05-05 00:33 54.87633 98.79698 33258 ft 472 kts 81°
2026-05-05 00:33 54.88227 98.91067 33256 ft 472 kts 81°
2026-05-05 00:34 54.88475 99.02490 33243 ft 477 kts 92°
2026-05-05 00:34 54.86854 99.13662 33245 ft 484 kts 111°
2026-05-05 00:35 54.83905 99.24185 33239 ft 485 kts 114°
2026-05-05 00:35 54.80896 99.34676 33260 ft 485 kts 114°
2026-05-05 00:36 54.77876 99.45160 33247 ft 485 kts 115°
2026-05-05 00:36 54.74857 99.55618 33246 ft 485 kts 115°
2026-05-05 00:37 54.71845 99.66010 33237 ft 484 kts 115°
2026-05-05 00:37 54.68813 99.76443 33243 ft 484 kts 115°
2026-05-05 00:38 54.65787 99.86766 33234 ft 484 kts 115°
2026-05-05 00:38 54.62726 99.97155 33224 ft 483 kts 115°
2026-05-05 00:39 54.59683 100.07482 33214 ft 483 kts 115°
2026-05-05 00:39 54.56619 100.17823 33186 ft 483 kts 115°
2026-05-05 00:40 54.53542 100.28140 33184 ft 484 kts 115°
2026-05-05 00:40 54.50475 100.38382 33186 ft 484 kts 115°
2026-05-05 00:41 54.47378 100.48687 33188 ft 484 kts 116°
2026-05-05 00:41 54.44265 100.59003 33189 ft 485 kts 116°
2026-05-05 00:42 54.41163 100.69210 33188 ft 485 kts 116°
2026-05-05 00:42 54.38037 100.79476 33203 ft 485 kts 116°
2026-05-05 00:43 54.34905 100.89726 33208 ft 484 kts 116°
2026-05-05 00:43 54.31782 100.99929 33208 ft 484 kts 116°
2026-05-05 00:44 54.28639 101.10134 33204 ft 484 kts 116°
2026-05-05 00:44 54.25468 101.20349 33209 ft 484 kts 116°
2026-05-05 00:45 54.22300 101.30515 33227 ft 484 kts 117°
2026-05-05 00:45 54.19140 101.40626 33202 ft 485 kts 117°
2026-05-05 00:46 54.15950 101.50788 33192 ft 485 kts 117°
2026-05-05 00:46 54.12754 101.60961 33193 ft 486 kts 117°
2026-05-05 00:47 54.09569 101.71027 33206 ft 486 kts 117°
2026-05-05 00:47 54.06350 101.81173 33200 ft 486 kts 117°
2026-05-05 00:48 54.03113 101.91320 33192 ft 486 kts 117°
2026-05-05 00:48 53.99893 102.01380 33191 ft 486 kts 117°
2026-05-05 00:49 53.96664 102.11483 33180 ft 486 kts 117°
2026-05-05 00:49 53.93421 102.21568 33191 ft 487 kts 117°
2026-05-05 00:50 53.90171 102.31644 33177 ft 487 kts 117°
2026-05-05 00:50 53.86911 102.41707 33175 ft 487 kts 118°
2026-05-05 00:51 53.83643 102.51762 33143 ft 487 kts 118°
2026-05-05 00:51 53.80357 102.61813 33148 ft 488 kts 118°
2026-05-05 00:52 53.77066 102.71845 33152 ft 489 kts 118°
2026-05-05 00:52 53.73752 102.81901 33140 ft 490 kts 118°
2026-05-05 00:53 53.70419 102.91949 33142 ft 490 kts 118°
2026-05-05 00:53 53.67107 103.01917 33137 ft 490 kts 118°
2026-05-05 00:54 53.63769 103.11943 33147 ft 490 kts 118°
2026-05-05 00:54 53.60419 103.21960 33124 ft 491 kts 119°
2026-05-05 00:55 53.57056 103.31967 33128 ft 491 kts 119°
2026-05-05 00:55 53.53679 103.41950 33119 ft 492 kts 119°
2026-05-05 00:56 53.50278 103.51936 33119 ft 492 kts 119°
2026-05-05 00:56 53.48580 103.56932 32881 ft 493 kts 119°
2026-05-05 00:56 53.46873 103.61952 32614 ft 493 kts 119°
2026-05-05 00:56 53.45178 103.66933 32037 ft 492 kts 120°
2026-05-05 00:57 53.43459 103.71968 30727 ft 501 kts 119°
2026-05-05 00:57 53.41734 103.76998 29683 ft 502 kts 119°
2026-05-05 00:57 53.39849 103.81913 28465 ft 502 kts 127°
2026-05-05 00:57 53.37569 103.86340 27177 ft 503 kts 135°
2026-05-05 00:58 53.34928 103.90176 25815 ft 504 kts 144°
2026-05-05 00:58 53.31979 103.93342 24474 ft 504 kts 152°
2026-05-05 00:58 53.28922 103.96168 23413 ft 499 kts 152°
2026-05-05 00:58 53.25896 103.98978 22285 ft 494 kts 153°
2026-05-05 00:59 53.22913 104.01760 21241 ft 488 kts 153°
2026-05-05 00:59 53.19973 104.04511 20272 ft 481 kts 152°
2026-05-05 00:59 53.17074 104.07228 19366 ft 475 kts 152°
2026-05-05 00:59 53.14212 104.09904 18512 ft 469 kts 153°
2026-05-05 01:00 53.11383 104.12535 17582 ft 463 kts 153°
2026-05-05 01:00 53.08587 104.15121 16679 ft 457 kts 153°
2026-05-05 01:00 53.05822 104.17653 15812 ft 451 kts 153°
2026-05-05 01:00 53.03087 104.20132 14999 ft 445 kts 153°
2026-05-05 01:01 53.00374 104.22569 14227 ft 439 kts 153°
2026-05-05 01:01 52.97698 104.24963 13416 ft 434 kts 153°
2026-05-05 01:01 52.95052 104.27332 12616 ft 429 kts 153°
2026-05-05 01:01 52.92429 104.29683 11841 ft 425 kts 152°
2026-05-05 01:02 52.89876 104.31976 11228 ft 417 kts 152°
2026-05-05 01:02 52.87394 104.34213 11070 ft 395 kts 153°
2026-05-05 01:02 52.85035 104.36341 10938 ft 376 kts 153°
2026-05-05 01:02 52.82783 104.38367 10809 ft 358 kts 153°
2026-05-05 01:03 52.80633 104.40295 10681 ft 343 kts 153°
2026-05-05 01:03 52.78571 104.42135 10562 ft 330 kts 153°
2026-05-05 01:03 52.76581 104.43908 10359 ft 321 kts 153°
2026-05-05 01:03 52.74642 104.45594 10078 ft 316 kts 157°
2026-05-05 01:04 52.72631 104.46998 9923 ft 313 kts 159°
2026-05-05 01:04 52.68617 104.49796 9544 ft 312 kts 159°
2026-05-05 01:04 52.66626 104.51191 9133 ft 310 kts 159°
2026-05-05 01:05 52.64642 104.52581 8725 ft 307 kts 159°
2026-05-05 01:05 52.62681 104.53947 8316 ft 305 kts 159°
2026-05-05 01:05 52.60754 104.55290 7953 ft 302 kts 159°
2026-05-05 01:05 52.58829 104.56631 7779 ft 300 kts 159°
2026-05-05 01:06 52.56902 104.57970 7622 ft 299 kts 158°
2026-05-05 01:06 52.54984 104.59307 7460 ft 298 kts 158°
2026-05-05 01:06 52.53075 104.60638 7305 ft 298 kts 158°
2026-05-05 01:06 52.51173 104.61961 7142 ft 296 kts 158°
2026-05-05 01:07 52.49272 104.63276 6980 ft 295 kts 159°
2026-05-05 01:07 52.47400 104.64564 6825 ft 295 kts 159°
2026-05-05 01:07 52.45513 104.65861 6669 ft 294 kts 159°
2026-05-05 01:07 52.43628 104.67158 6518 ft 293 kts 158°
2026-05-05 01:08 52.41754 104.68449 6345 ft 291 kts 158°
2026-05-05 01:08 52.39890 104.69735 6191 ft 290 kts 159°
2026-05-05 01:08 52.38657 104.70585 6085 ft 290 kts 159°
2026-05-05 01:08 52.36791 104.71870 5927 ft 289 kts 159°
2026-05-05 01:09 52.34333 104.73561 5720 ft 289 kts 158°
2026-05-05 01:09 52.33085 104.74420 5617 ft 288 kts 158°
2026-05-05 01:09 52.30638 104.76103 5410 ft 287 kts 159°
2026-05-05 01:09 52.29386 104.76772 5314 ft 280 kts 171°
2026-05-05 01:10 52.27517 104.76850 5202 ft 260 kts 193°
2026-05-05 01:10 52.25862 104.75991 5083 ft 240 kts 213°
2026-05-05 01:10 52.24557 104.74490 4979 ft 222 kts 230°
2026-05-05 01:10 52.23459 104.72787 4870 ft 213 kts 230°
2026-05-05 01:11 52.22398 104.71158 4778 ft 205 kts 230°
2026-05-05 01:11 52.21377 104.69593 4682 ft 197 kts 230°
2026-05-05 01:11 52.20456 104.68047 4586 ft 187 kts 244°
2026-05-05 01:11 52.20014 104.66143 4514 ft 175 kts 270°
2026-05-05 01:12 52.20109 104.64209 4532 ft 170 kts 291°
2026-05-05 01:12 52.20555 104.62452 4549 ft 164 kts 297°
2026-05-05 01:12 52.20996 104.60812 4502 ft 152 kts 297°
2026-05-05 01:12 52.21413 104.59260 4347 ft 146 kts 297°
2026-05-05 01:13 52.21811 104.57782 4164 ft 143 kts 297°
2026-05-05 01:13 52.22208 104.56304 3962 ft 140 kts 296°
2026-05-05 01:13 52.22591 104.54879 3755 ft 131 kts 296°
2026-05-05 01:13 52.22941 104.53572 3568 ft 122 kts 297°
2026-05-05 01:14 52.23275 104.52324 3380 ft 118 kts 297°
2026-05-05 01:14 52.23604 104.51101 3205 ft 116 kts 297°
2026-05-05 01:14 52.23927 104.49894 3031 ft 116 kts 297°
2026-05-05 01:14 52.24246 104.48705 2849 ft 115 kts 297°
2026-05-05 01:15 52.24568 104.47501 2672 ft 115 kts 296°
2026-05-05 01:15 52.24890 104.46301 2472 ft 116 kts 297°
2026-05-05 01:15 52.25221 104.45092 2266 ft 117 kts 297°
2026-05-05 01:15 52.25542 104.43878 2056 ft 115 kts 296°
2026-05-05 01:16 52.25857 104.42676 1881 ft 116 kts 295°
2026-05-05 01:16 52.26180 104.41459 1699 ft 117 kts 295°
2026-05-05 01:16 52.26497 104.40278 1659 ft 106 kts 296°
2026-05-05 01:16 52.26747 104.39344 1651 ft 67 kts 294°
2026-05-05 01:17 52.26873 104.38889 1651 ft 32 kts 295°
2026-05-05 01:17 52.26955 104.38569 1650 ft 29 kts 293°
2026-05-05 01:17 52.27025 104.38301 1651 ft 18 kts 293°
2026-05-05 01:17 52.27056 104.38150 1652 ft 11 kts 263°
2026-05-05 01:18 52.26993 104.38080 1652 ft 13 kts 204°
2026-05-05 01:18 52.26903 104.38012 1651 ft 15 kts 204°
2026-05-05 01:18 52.26837 104.37956 1651 ft 8 kts 225°
2026-05-05 01:18 52.26849 104.37858 1651 ft 12 kts 293°
2026-05-05 01:19 52.26889 104.37703 1651 ft 16 kts 293°
2026-05-05 01:19 52.26937 104.37526 1651 ft 17 kts 293°
2026-05-05 01:19 52.26985 104.37346 1651 ft 14 kts 294°
2026-05-05 01:19 52.26993 104.37209 1651 ft 12 kts 239°
2026-05-05 01:20 52.27001 104.37075 1651 ft 13 kts 290°
2026-05-05 01:20 52.27035 104.36927 1651 ft 14 kts 290°
2026-05-05 01:20 52.27054 104.36841 1651 ft 0 kts 290°
2026-05-05 01:21 52.27054 104.36840 1651 ft 0 kts 290°
2026-05-05 01:21 52.27055 104.36835 1651 ft 0 kts 290°
2026-05-05 01:26 52.27068 104.36782 1651 ft 15 kts 290°
2026-05-05 01:31 52.27063 104.36800 1651 ft 7 kts 291°
2026-05-05 01:31 52.27066 104.36854 1651 ft 7 kts 65°
2026-05-05 01:31 52.27088 104.36880 1651 ft 0 kts 21°